Date String (YYYY-MM-DD hh:mm:ss) UTC,Instrument flags,absolute air pressure of the measurement (hPa),sample flow rate (lpm),inlet stack bypass flow (lpm),air temperature of the measurement (°C),ambient temperature measured by the external sensor (°C),aerosol sample conditioner tube jacket temperature (°C),OPC LED temperature (°C),internal box temperature (°C),relative humidity of the measurement (%),span deviation,mass concentration of particles derived from Lorenz-Mie calculation of OPC scattering (μg/m³),mass concentration of particles derived from Lorenz-Mie calculation of OPC scattering (μg/m³),mass concentration of particles derived from Lorenz-Mie calculation of OPC scattering (μg/m³)
DateTimeUTC,F1_M11,P_M11,Q1_M11,Q2_M11,T1_M11,T2_M11,T3_M11,T4_M11,T5_M11,U1_M11,ZSPAN_M11,X2_M11,X0_M11,X1_M11
2024-06-03 14:00:00,SystemResetWarning,0824.7,4.99,000.00,031.1,030.3,000.0,039.4,032.7,016.8,0000.0,0005.35,0017.20,0003.71
2024-06-03 14:01:00,SystemResetWarning,0824.7,5.00,000.00,031.1,030.3,000.0,039.4,032.7,015.9,0000.0,0005.31,0016.20,0003.72
2024-06-03 14:02:00,SystemResetWarning,0824.7,5.00,000.00,031.1,030.3,000.0,039.4,032.7,016.6,0000.0,0005.27,0015.92,0003.72
2024-06-03 14:03:00,SystemResetWarning,0824.6,5.00,000.00,031.1,030.3,000.0,039.4,032.7,017.0,0000.0,0005.21,0015.13,0003.73
2024-06-03 14:04:00,SystemResetWarning,0824.7,5.00,000.00,031.1,030.3,000.0,039.4,032.7,016.9,0000.0,0005.14,0014.83,0003.72
2024-06-03 14:05:00,SystemResetWarning,0824.7,5.00,000.00,031.1,030.3,000.0,039.4,032.7,016.5,0000.0,0005.04,0014.82,0003.72
2024-06-03 14:06:00,SystemResetWarning,0824.7,5.00,000.00,031.1,030.3,000.0,039.4,032.7,015.2,0000.0,0005.06,0014.19,0003.72
2024-06-03 14:07:00,SystemResetWarning,0824.7,5.00,000.00,031.1,030.3,000.0,039.5,032.8,015.0,0000.0,0005.07,0014.24,0003.73
2024-06-03 14:08:00,SystemResetWarning,0824.7,5.00,000.00,031.1,030.3,000.0,039.5,032.7,015.6,0000.0,0005.06,0013.85,0003.72
2024-06-03 14:09:00,SystemResetWarning,0824.7,5.00,000.00,031.1,030.3,000.0,039.5,032.8,016.8,0000.0,0005.02,0014.05,0003.72
2024-06-03 14:10:00,SystemResetWarning,0824.7,5.00,000.00,031.1,030.3,000.0,039.5,032.8,016.9,0000.0,0005.06,0014.60,0003.72
2024-06-03 14:11:00,SystemResetWarning,0824.7,5.00,000.00,031.1,030.3,000.0,039.5,032.8,016.2,0000.0,0005.04,0015.59,0003.73
2024-06-03 14:12:00,SystemResetWarning,0824.7,5.00,000.00,031.1,030.3,000.0,039.5,032.7,015.9,0000.0,0005.02,0016.38,0003.72
2024-06-03 14:13:00,SystemResetWarning,0824.7,5.00,000.00,031.1,030.3,000.0,039.5,032.7,015.8,0000.0,0005.00,0016.15,0003.73
2024-06-03 14:14:00,SystemResetWarning,0824.7,5.00,000.00,031.1,030.3,000.0,039.5,032.8,015.9,0000.0,0004.98,0016.19,0003.71
2024-06-03 14:15:00,SystemResetWarning,0824.7,5.00,000.00,031.1,030.4,000.0,039.5,032.8,015.7,0000.0,0005.01,0017.39,0003.72
2024-06-03 14:16:00,SystemResetWarning,0824.7,5.00,000.00,031.1,030.4,000.0,039.5,032.8,015.8,0000.0,0005.05,0017.69,0003.72
2024-06-03 14:17:00,SystemResetWarning,0824.7,5.01,000.00,031.1,030.4,000.0,039.5,032.8,016.4,0000.0,0005.01,0018.51,0003.72
2024-06-03 14:18:00,SystemResetWarning,0824.7,5.00,000.00,031.1,030.4,000.0,039.5,032.8,016.3,0000.0,0004.97,0018.20,0003.72
2024-06-03 14:19:00,SystemResetWarning,0824.7,4.99,000.00,031.1,030.4,000.0,039.5,032.8,018.6,0000.0,0004.93,0018.26,0003.72
2024-06-03 14:20:00,SystemResetWarning,0824.7,4.99,000.00,031.1,030.4,000.0,039.5,032.8,019.6,0000.0,0005.01,0018.87,0003.73
2024-06-03 14:21:00,SystemResetWarning,0824.7,5.01,000.00,031.1,030.4,000.0,039.5,032.8,018.9,0000.0,0005.07,0020.75,0003.75
2024-06-03 14:22:00,SystemResetWarning,0824.7,5.01,000.00,031.1,030.4,000.0,039.5,032.8,019.1,0000.0,0005.16,0020.35,0003.76
2024-06-03 14:23:00,SystemResetWarning,0824.7,5.00,000.00,031.1,030.4,000.0,039.5,032.8,019.0,0000.0,0005.29,0022.05,0003.76
2024-06-03 14:24:00,SystemResetWarning,0824.6,4.98,000.00,031.1,030.4,000.0,039.5,032.8,019.4,0000.0,0005.42,0023.05,0003.78
2024-06-03 14:25:00,SystemResetWarning,0824.6,4.99,000.00,031.1,030.4,000.0,039.5,032.8,019.8,0000.0,0005.52,0023.99,0003.79
2024-06-03 14:26:00,SystemResetWarning,0824.6,5.00,000.00,031.2,030.4,000.0,039.5,032.8,019.2,0000.0,0005.56,0024.37,0003.80
2024-06-03 14:27:00,SystemResetWarning,0824.6,5.00,000.00,031.2,030.4,000.0,039.5,032.8,017.6,0000.0,0005.59,0025.22,0003.80
2024-06-03 14:28:00,SystemResetWarning,0824.6,5.01,000.00,031.2,030.4,000.0,039.5,032.8,017.7,0000.0,0005.63,0027.04,0003.82
2024-06-03 14:29:00,SystemResetWarning,0824.5,5.01,000.00,031.2,030.4,000.0,039.6,032.9,017.7,0000.0,0005.62,0028.19,0003.81
2024-06-03 14:30:00,SystemResetWarning,0824.5,4.99,000.00,031.2,030.4,000.0,039.6,032.9,017.7,0000.0,0005.65,0027.74,0003.82
2024-06-03 14:31:00,SystemResetWarning,0824.5,4.99,000.00,031.2,030.4,000.0,039.6,032.9,017.3,0000.0,0005.63,0027.13,0003.82
2024-06-03 14:32:00,SystemResetWarning,0824.5,4.99,000.00,031.2,030.4,000.0,039.6,032.9,017.5,0000.0,0005.62,0026.14,0003.80
2024-06-03 14:33:00,SystemResetWarning,0824.5,4.99,000.00,031.2,030.4,000.0,039.6,032.9,018.0,0000.0,0005.52,0026.14,0003.80
2024-06-03 14:34:00,SystemResetWarning,0824.4,5.01,000.00,031.2,030.4,000.0,039.6,032.9,017.8,0000.0,0005.42,0023.62,0003.80
2024-06-03 14:35:00,SystemResetWarning,0824.4,5.01,000.00,031.2,030.4,000.0,039.6,032.9,017.4,0000.0,0005.30,0023.77,0003.79
2024-06-03 14:36:00,SystemResetWarning,0824.4,5.01,000.00,031.2,030.4,000.0,039.6,032.9,017.3,0000.0,0005.24,0023.78,0003.78
2024-06-03 14:37:00,SystemResetWarning,0824.4,5.00,000.00,031.2,030.5,000.0,039.6,032.9,017.6,0000.0,0005.20,0022.92,0003.76
2024-06-03 14:38:00,SystemResetWarning,0824.4,5.00,000.00,031.2,030.5,000.0,039.6,032.9,017.8,0000.0,0005.23,0022.64,0003.76
2024-06-03 14:39:00,SystemResetWarning,0824.4,4.99,000.00,031.2,030.5,000.0,039.6,032.9,018.5,0000.0,0005.22,0020.50,0003.74
2024-06-03 14:40:00,SystemResetWarning,0824.4,4.99,000.00,031.2,030.5,000.0,039.6,032.9,017.3,0000.0,0005.20,0018.63,0003.73
2024-06-03 14:41:00,SystemResetWarning,0824.3,5.00,000.00,031.2,030.5,000.0,039.6,032.9,017.5,0000.0,0005.13,0018.66,0003.72
2024-06-03 14:42:00,SystemResetWarning,0824.3,5.01,000.00,031.2,030.5,000.0,039.6,032.9,017.8,0000.0,0005.09,0019.12,0003.71
2024-06-03 14:43:00,SystemResetWarning,0824.4,5.00,000.00,031.2,030.5,000.0,039.6,032.9,016.9,0000.0,0005.04,0018.04,0003.71
2024-06-03 14:44:00,SystemResetWarning,0824.4,5.00,000.00,031.2,030.5,000.0,039.6,032.9,015.7,0000.0,0005.04,0017.33,0003.71
2024-06-03 14:45:00,SystemResetWarning,0824.3,5.01,000.00,031.3,030.5,000.0,039.7,032.9,015.7,0000.0,0005.04,0017.24,0003.70
2024-06-03 14:46:00,SystemResetWarning,0824.3,5.00,000.00,031.3,030.5,000.0,039.6,032.9,015.1,0000.0,0004.98,0016.89,0003.68
2024-06-03 14:47:00,SystemResetWarning,0824.3,5.00,000.00,031.3,030.5,000.0,039.6,032.9,015.0,0000.0,0004.92,0015.99,0003.67
2024-06-03 14:48:00,SystemResetWarning,0824.3,4.99,000.00,031.3,030.5,000.0,039.6,032.9,017.1,0000.0,0004.92,0015.55,0003.67
2024-06-03 14:49:00,SystemResetWarning,0824.3,5.00,000.00,031.3,030.5,000.0,039.6,032.9,017.3,0000.0,0004.92,0015.17,0003.67
2024-06-03 14:50:00,SystemResetWarning,0824.3,5.00,000.00,031.3,030.5,000.0,039.7,032.9,017.6,0000.0,0004.88,0014.36,0003.67
2024-06-03 14:51:00,SystemResetWarning,0824.3,5.00,000.00,031.3,030.5,000.0,039.7,032.9,017.0,0000.0,0004.86,0014.47,0003.66
2024-06-03 14:52:00,SystemResetWarning,0824.3,5.00,000.00,031.3,030.5,000.0,039.7,033.0,017.1,0000.0,0004.85,0014.25,0003.65
2024-06-03 14:53:00,SystemResetWarning,0824.4,5.00,000.00,031.3,030.5,000.0,039.7,033.0,016.4,0000.0,0004.88,0013.59,0003.64
2024-06-03 14:54:00,SystemResetWarning,0824.4,5.00,000.00,031.3,030.6,000.0,039.7,033.0,017.3,0000.0,0004.88,0013.79,0003.63
2024-06-03 14:55:00,SystemResetWarning,0824.4,5.01,000.00,031.3,030.6,000.0,039.7,033.0,017.2,0000.0,0004.85,0014.54,0003.62
2024-06-03 14:56:00,SystemResetWarning,0824.3,5.00,000.00,031.3,030.6,000.0,039.7,033.0,017.4,0000.0,0004.84,0014.82,0003.63
2024-06-03 14:57:00,SystemResetWarning,0824.3,4.99,000.00,031.3,030.6,000.0,039.7,033.0,016.9,0000.0,0004.92,0015.87,0003.64
2024-06-03 14:58:00,SystemResetWarning,0824.3,5.00,000.00,031.3,030.6,000.0,039.7,033.0,017.0,0000.0,0004.93,0015.69,0003.64
2024-06-03 14:59:00,SystemResetWarning,0824.3,5.00,000.00,031.3,030.6,000.0,039.7,033.0,017.0,0000.0,0004.94,0015.14,0003.65
